TimeEDT,TemperatureF,Dew PointF,Humidity,Sea Level PressureIn,VisibilityMPH,Wind Direction,Wind SpeedMPH,Gust SpeedMPH,PrecipitationIn,Events,Conditions,WindDirDegrees,DateUTC
12:42 AM,59.0,59.0,100,29.97,5.0,East,3.5,-,N/A,Rain,Rain,100,2013-05-09 04:42:00
1:02 AM,59.0,59.0,100,29.96,10.0,Calm,Calm,-,N/A,Rain,Light Rain,0,2013-05-09 05:02:00
1:22 AM,57.2,57.2,100,29.95,7.0,East,3.5,-,N/A,Rain-Thunderstorm,Light Thunderstorms and Rain,80,2013-05-09 05:22:00
2:02 AM,55.4,55.4,100,29.94,5.0,Calm,Calm,-,N/A,,Scattered Clouds,0,2013-05-09 06:02:00
4:22 AM,55.4,55.4,100,29.93,4.0,Calm,Calm,-,N/A,,Clear,0,2013-05-09 08:22:00
4:42 AM,55.4,55.4,100,29.93,1.2,Calm,Calm,-,N/A,,Mist,0,2013-05-09 08:42:00
6:02 AM,53.6,53.6,100,29.93,7.0,Calm,Calm,-,N/A,,Clear,0,2013-05-09 10:02:00
6:22 AM,55.4,55.4,100,29.94,10.0,West,3.5,-,N/A,,Clear,260,2013-05-09 10:22:00
6:43 AM,55.4,55.4,100,29.95,4.0,Calm,Calm,-,N/A,,Clear,0,2013-05-09 10:43:00
7:23 AM,53.6,53.6,100,29.97,0.2,West,5.8,-,N/A,Fog,Fog,270,2013-05-09 11:23:00
8:03 AM,53.6,53.6,100,29.98,2.0,WSW,5.8,-,N/A,,Overcast,250,2013-05-09 12:03:00
8:23 AM,55.4,55.4,100,29.97,3.0,West,3.5,-,N/A,,Overcast,260,2013-05-09 12:23:00
9:43 AM,57.2,57.2,100,29.99,7.0,WSW,3.5,-,N/A,,Overcast,250,2013-05-09 13:43:00
10:23 AM,59.0,55.4,88,30.00,10.0,WSW,3.5,-,N/A,,Overcast,240,2013-05-09 14:23:00
11:03 AM,60.8,55.4,82,30.00,10.0,Calm,Calm,-,N/A,,Scattered Clouds,0,2013-05-09 15:03:00
11:43 AM,62.6,55.4,77,29.99,10.0,West,3.5,-,N/A,,Clear,270,2013-05-09 15:43:00
12:03 PM,62.6,55.4,77,29.99,10.0,WSW,3.5,-,N/A,,Clear,250,2013-05-09 16:03:00
12:23 PM,64.4,55.4,73,29.98,10.0,SSW,4.6,-,N/A,,Clear,210,2013-05-09 16:23:00
12:43 PM,64.4,55.4,73,29.97,10.0,SSW,6.9,-,N/A,,Clear,210,2013-05-09 16:43:00
1:03 PM,66.2,53.6,64,29.97,10.0,South,6.9,-,N/A,,Clear,180,2013-05-09 17:03:00
1:23 PM,68.0,55.4,64,29.97,10.0,SW,4.6,-,N/A,,Clear,220,2013-05-09 17:23:00
1:43 PM,68.0,55.4,64,29.96,10.0,South,6.9,-,N/A,,Clear,190,2013-05-09 17:43:00
2:03 PM,68.0,55.4,64,29.96,10.0,SW,4.6,-,N/A,,Clear,220,2013-05-09 18:03:00
2:23 PM,69.8,55.4,60,29.96,10.0,South,6.9,-,N/A,,Scattered Clouds,190,2013-05-09 18:23:00
2:43 PM,69.8,55.4,60,29.95,10.0,SW,3.5,-,N/A,,Clear,230,2013-05-09 18:43:00
3:03 PM,71.6,55.4,57,29.95,10.0,SW,3.5,-,N/A,,Clear,230,2013-05-09 19:03:00
3:24 PM,69.8,59.0,68,29.94,10.0,SSE,5.8,-,N/A,,Clear,160,2013-05-09 19:24:00
4:04 PM,69.8,59.0,68,29.94,10.0,South,4.6,-,N/A,,Scattered Clouds,170,2013-05-09 20:04:00
4:24 PM,69.8,59.0,68,29.94,10.0,South,5.8,-,N/A,,Scattered Clouds,170,2013-05-09 20:24:00
4:44 PM,71.6,57.2,60,29.94,10.0,South,6.9,-,N/A,,Scattered Clouds,170,2013-05-09 20:44:00
5:04 PM,69.8,57.2,64,29.94,10.0,SSE,6.9,-,N/A,,Scattered Clouds,160,2013-05-09 21:04:00
5:24 PM,69.8,59.0,68,29.94,10.0,SSE,4.6,-,N/A,,Scattered Clouds,160,2013-05-09 21:24:00
5:44 PM,69.8,59.0,68,29.94,10.0,SSE,3.5,-,N/A,,Scattered Clouds,160,2013-05-09 21:44:00
6:04 PM,71.6,57.2,60,29.94,10.0,SSW,5.8,-,N/A,,Scattered Clouds,200,2013-05-09 22:04:00
6:24 PM,71.6,57.2,60,29.94,10.0,SW,9.2,-,N/A,,Clear,230,2013-05-09 22:24:00
6:44 PM,69.8,57.2,64,29.94,10.0,SW,5.8,-,N/A,,Clear,220,2013-05-09 22:44:00
7:04 PM,69.8,57.2,64,29.95,10.0,SW,6.9,-,N/A,,Clear,230,2013-05-09 23:04:00
7:24 PM,69.8,57.2,64,29.95,10.0,SW,4.6,-,N/A,,Clear,220,2013-05-09 23:24:00
7:44 PM,68.0,59.0,73,29.96,10.0,SSW,5.8,-,N/A,,Scattered Clouds,200,2013-05-09 23:44:00
8:04 PM,68.0,59.0,73,29.97,10.0,SSW,3.5,-,N/A,,Scattered Clouds,210,2013-05-10 00:04:00
8:44 PM,68.0,59.0,73,29.97,10.0,SSW,3.5,-,N/A,,Clear,210,2013-05-10 00:44:00
9:04 PM,68.0,59.0,73,29.97,10.0,Calm,Calm,-,N/A,,Scattered Clouds,0,2013-05-10 01:04:00
9:24 PM,66.2,59.0,78,29.98,10.0,Calm,Calm,-,N/A,,Clear,0,2013-05-10 01:24:00
9:44 PM,66.2,59.0,78,29.99,10.0,Calm,Calm,-,N/A,,Clear,0,2013-05-10 01:44:00
10:04 PM,64.4,59.0,83,29.99,10.0,Calm,Calm,-,N/A,,Clear,0,2013-05-10 02:04:00
10:24 PM,64.4,59.0,83,30.00,10.0,SSW,4.6,-,N/A,,Clear,200,2013-05-10 02:24:00
10:44 PM,64.4,59.0,83,29.99,10.0,Calm,Calm,-,N/A,,Clear,0,2013-05-10 02:44:00
11:04 PM,62.6,59.0,88,29.99,10.0,Calm,Calm,-,N/A,,Clear,0,2013-05-10 03:04:00
11:24 PM,62.6,59.0,88,29.99,10.0,Calm,Calm,-,N/A,,Clear,0,2013-05-10 03:24:00